Regional Weather Roundup
Issued by NWS

Home | Current Version | Previous Version | Text Only | Print | Product List | Glossary On
Versions: 1 2 3 4 5 6 7 8 9 10 11 12 13 14 15 16 17 18 19 20 21 22 23 24 25 26 27 28 29 30 31 32 33 34 35 36 37 38 39 40 41 42 43 44 45 46 47 48 49 50
000
ASUS45 KTFX 051010
RWRMT
MONTANA REGIONAL WEATHER ROUNDUP
NATIONAL WEATHER SERVICE GREAT FALLS MT
400 AM MDT SUN JUL 05 2015

NOTE: "FAIR" INDICATES FEW OR NO CLOUDS BELOW 12000 FEET WITH NO
SIGNIFICANT WEATHER AND/OR OBSTRUCTIONS TO VISIBILITY.

MTZ001>007-043-051100-
WEST OF THE DIVIDE

CITY           SKY/WX    TMP DP  RH WIND       PRES   REMARKS
KALISPELL      PTSUNNY   62  44  51 N21G31    29.97S
MISSOULA       CLEAR     69  43  38 VRB5      29.88R
BUTTE          PTCLDY    59  47  64 N13       30.02R
MULLAN PASS    PTCLDY    68  35  29 SW6       30.00S
DEER LODGE       N/A     57  50  77 NE9       30.08R
EUREKA           N/A     61  46  59 SW3       30.04R
HAMILTON         N/A     64  45  48 S8        29.85S
LIBBY            N/A     66  48  52 N7        29.98R
PLAINS           N/A     65  50  58 SW2       29.89R
RONAN            N/A     65  54  67 N2        29.95R
THOMPSON FALLS   N/A     74  47  38 N14       29.88R
$$

MTZ008-052>055-051100-
SOUTHWEST MONTANA

CITY           SKY/WX    TMP DP  RH WIND       PRES   REMARKS
BOZEMAN        CLEAR     62  51  67 NW18      29.93R
DILLON         CLOUDY    62  49  62 NE16G25   29.95R
W YELLOWSTONE  PTCLDY    52  41  66 CALM      30.04R
THREE FORKS      N/A     63  63 100 N13       29.98R
$$

MTZ009-010-012-014-046-048-049-054-051100-
EAST SLOPES AND CENTRAL MONTANA

CITY           SKY/WX    TMP DP  RH WIND       PRES   REMARKS
CUT BANK       LGT RAIN  50  49  96 N13       30.15S FOG
GREAT FALLS    CLOUDY    56  51  84 NW16      30.08S
MALMSTROM AFB  CLOUDY    58  52  79 N16       30.08R
HELENA         CLOUDY    61  51  70 N14       30.04S
CONRAD           N/A     52  52 100 NW6       30.15R
$$

MTZ011-013-016-021-045-047-050-051-051100-
NORTH CENTRAL MONTANA

CITY           SKY/WX    TMP DP  RH WIND       PRES   REMARKS
LEWISTOWN      CLOUDY    61  51  70 N12       30.02R
FORT BENTON      N/A     57  54  88 N13       30.07R
$$

MTZ017>020-022>027-061-062-051100-
NORTHEAST MONTANA

CITY           SKY/WX    TMP DP  RH WIND       PRES   REMARKS
GLASGOW        MOCLDY    59  53  80 N20       29.88F
JORDAN           N/A     59  56  89 E20G35    29.87F
SIDNEY         CLOUDY    64  61  88 NW16G22   29.89R THUNDER
WOLF POINT     RAIN      64  56  75 E23G29    29.84F
PLENTYWOOD       N/A     63  59  88 NW6       29.93R
POPLAR           N/A     63  59  88 N7        29.94R
SCOBEY           N/A     58  50  75 N8        29.93R
$$

MTZ028>42-056>058-051100-
SOUTHCENTRAL AND SOUTHEAST MONTANA

CITY           SKY/WX    TMP DP  RH WIND       PRES   REMARKS
BAKER          PTCLDY    62  55  77 E7        29.73F
BILLINGS       PTCLDY    69  56  62 N29G37    29.85R
LIVINGSTON     CLEAR     61  51  70 NW15G29   29.96R
MILES CITY     MOCLDY    69  60  73 N25G31    29.79R
EKALAKA          N/A     71  60  68 SE3       29.77R
FORSYTH          N/A     68  57  68 N21G31    29.80R
LAUREL           N/A     70  56  61 N14       29.85R
ROUNDUP          N/A     60  52  75 N18       29.84R
$$

REGIONAL REPORTS...DAKOTAS

CITY           SKY/WX    TMP DP  RH WIND       PRES   REMARKS
WILLISTON      RAIN      66  63  90 N22G28    29.87R
MINOT          CLOUDY    62  60  93 N9        29.76R FOG
DICKINSON      PTCLDY    62  60  93 NE8       29.72F
BEACH          LGT RAIN  63  63 100 N26G36    29.83R
CROSBY         FAIR      63  63 100 NW8       29.89R FOG
BISMARCK       PTCLDY    68  67  96 E7        29.70F
GRAND FORKS    MOCLDY    68  67  96 SE10      29.73F
FARGO          MOCLDY    71  65  81 S13       29.75R
BUFFALO SD       N/A     69  58  67 S5        29.68F
RAPID CITY     CLEAR     65  61  87 SE5       29.78F
$$

REGIONAL REPORTS...WYOMING/IDAHO/WASHINGTON

CITY           SKY/WX    TMP DP  RH WIND       PRES   REMARKS
GILLETTE       PTCLDY    72  56  57 S16G23    29.81F
SHERIDAN       PTCLDY    64  54  69 S5        29.77F
BUFFALO WY     MOCLDY    75  50  41 SW3       29.85F
CODY           PTCLDY    68  43  40 CALM      29.88R
YELLOWSTONE LA   N/A     48  38  68 CALM      30.14S
IDAHO FALLS    CLOUDY    73  51  46 SW21      29.92R
SALMON         CLOUDY    64  48  55 CALM      29.85S
BOISE          PTCLDY    77  48  35 CALM      29.82R
SPOKANE        PTCLDY    73  26  17 N7        29.79R
$$

REGIONAL REPORTS...ALBERTA

CITY           SKY/WX    TMP DP  RH WIND       PRES   REMARKS
EDMONTON       CLOUDY    52  45  76 NW10      30.10R
CALGARY        MOCLDY    52  43  71 NW7       30.18R
LETHBRIDGE     LGT RAIN  54  50  87 W7        30.16S
MEDICINE HAT   CLOUDY    55  52  88 SW6       30.09F
WATERTON GATE    N/A     46  43  87 N1          N/A
CARDSTON         N/A     48  48 100 NW3         N/A
MILK RIVER       N/A     50  50 100 N14         N/A
ONEFOUR          N/A     52  50  93 N13         N/A
$$

REGIONAL REPORTS...SASKATCHEWAN

CITY           SKY/WX    TMP DP  RH WIND       PRES   REMARKS
SWIFT CURRENT  LGT RAIN  55  48  76 W12       30.01S
REGINA         CLOUDY    57  55  94 NW5       29.91R FOG
SASKATOON      PTCLDY    48  46  93 NW7       29.96R
CYPRESS HILLS    N/A     48  46  93 N5          N/A
VAL MARIE        N/A     55  54  94 N15         N/A
ROCKGLEN         N/A     54  50  87 NW8         N/A
ASSINIBOIA       N/A     54  50  87 NW13        N/A
$$


USA.gov is the U.S. government's official web portal to all federal, state and local government web resources and services.